Location: Tel Aviv
(32.0670°N, 34.7670°E)
Time: 11:31:18
(UTC+03:00)

FO-29 - Visible Passes

Search period start: 16 September 2024 00:00
Search period end: 26 September 2024 00:00
Orbit: 800 x 1320 km, 98.6° (Epoch: 15 September)

Date Brightness Start Highest point End Pass type
(mag) Time Alt. Az. Time Alt. Az. Time Alt. Az.
16 Sep 12.1 01:34:33 10° N 01:36:27 19° N 01:36:27 19° N visible
16 Sep 12.2 03:22:47 10° NNW 03:22:55 10° NW 03:22:55 10° NW visible
17 Sep 12.4 00:39:52 10° NNE 00:40:30 13° NNE 00:40:30 13° NNE visible
17 Sep 12.0 02:25:06 10° N 02:26:58 17° NNW 02:26:58 17° NNW visible
18 Sep 12.2 01:29:23 10° N 01:31:01 18° N 01:31:01 18° N visible
18 Sep 12.2 03:17:14 10° NNW 03:17:29 10° NNW 03:17:29 10° NNW visible
19 Sep 12.5 00:34:48 10° NNE 00:35:04 11° NNE 00:35:04 11° NNE visible
19 Sep 12.1 02:19:52 10° N 02:21:31 17° NNW 02:21:31 17° NNW visible
20 Sep 12.3 01:24:14 10° NNE 01:25:34 16° NNE 01:25:34 16° NNE visible
20 Sep 12.3 03:11:47 10° NNW 03:12:02 11° NNW 03:12:02 11° NNW visible
21 Sep 12.2 02:14:38 10° N 02:16:05 16° N 02:16:05 16° N visible
22 Sep 12.3 01:19:06 10° NNE 01:20:07 15° NNE 01:20:07 15° NNE visible
22 Sep 12.3 03:06:22 10° NNW 03:06:35 11° NNW 03:06:35 11° NNW visible
23 Sep 12.2 02:09:26 10° N 02:10:37 15° N 02:10:37 15° N visible
24 Sep 12.4 01:14:00 10° NNE 01:14:40 13° NNE 01:14:40 13° NNE visible
24 Sep 12.3 03:01:00 10° NNW 03:01:07 10° NNW 03:01:07 10° NNW visible
25 Sep 12.3 02:04:14 10° N 02:05:09 14° N 02:05:09 14° N visible
